When you browse on this site, cookies collect data to enhance your experience and personalize the content and advertising you see.
Visit our Privacy Policy to learn more. By continuing to use the site, you agree to this use of cookies and data.
  • en France
  • Liste des pays
  • À 7 jours
  • Température de l'eau
  • Carte satellitaire
  • Carte météo
  • Widgets météo
  • user-avatar
    Se connecter

    Météo par heure à Bassé Santa Su

    Ce jour, 21 Juillet, Dimanche

    Heure Température Précipitation Vent Pression Humidité
    00:00 +27°C° 0 mm 3 m/s 758 mmHg 87%
    01:00 +27°C° 0 mm 2 m/s 758 mmHg 88%
    02:00 +26°C° 0 mm 2 m/s 757 mmHg 90%
    03:00 +26°C° 0 mm 2 m/s 757 mmHg 91%
    04:00 +26°C° 0 mm 1 m/s 757 mmHg 92%
    05:00 +26°C° 0 mm 1 m/s 757 mmHg 94%
    06:00 +27°C° 0 mm 1 m/s 758 mmHg 88%
    07:00 +28°C° 0 mm 2 m/s 758 mmHg 83%
    08:00 +29°C° 0 mm 2 m/s 758 mmHg 77%
    09:00 +31°C° 0 mm 2 m/s 758 mmHg 68%
    10:00 +34°C° 0 mm 2 m/s 758 mmHg 59%
    11:00 +35°C° 0 mm 1 m/s 758 mmHg 50%
    12:00 +37°C° 0 mm 2 m/s 758 mmHg 47%
    13:00 +38°C° 0 mm 2 m/s 757 mmHg 43%
    14:00 +39°C° 0 mm 2 m/s 756 mmHg 40%
    15:00 +39°C° 0 mm 2 m/s 756 mmHg 40%
    16:00 +38°C° 0 mm 2 m/s 755 mmHg 41%
    17:00 +38°C° 0 mm 3 m/s 755 mmHg 42%
    18:00 +36°C° 0 mm 3 m/s 755 mmHg 49%
    19:00 +35°C° 0 mm 4 m/s 756 mmHg 55%
    20:00 +33°C° 0 mm 4 m/s 757 mmHg 62%
    21:00 +32°C° 0.2 mm 4 m/s 757 mmHg 66%
    22:00 +30°C° 0.2 mm 4 m/s 757 mmHg 71%
    23:00 +29°C° 0.2 mm 4 m/s 757 mmHg 75%

    Demain, 22 Juillet, Lundi

    Heure Température Précipitation Vent Pression Humidité
    00:00 +28°C° 0 mm 4 m/s 757 mmHg 77%
    01:00 +28°C° 0 mm 4 m/s 757 mmHg 78%
    02:00 +28°C° 0 mm 3 m/s 757 mmHg 79%
    03:00 +27°C° 1.1 mm 3 m/s 757 mmHg 82%
    04:00 +27°C° 1.1 mm 3 m/s 758 mmHg 86%
    05:00 +26°C° 1.1 mm 3 m/s 759 mmHg 89%
    06:00 +26°C° 0.3 mm 3 m/s 758 mmHg 89%
    07:00 +26°C° 0.3 mm 3 m/s 758 mmHg 88%
    08:00 +25°C° 0.3 mm 3 m/s 758 mmHg 88%
    09:00 +27°C° 0 mm 3 m/s 758 mmHg 79%
    10:00 +29°C° 0 mm 3 m/s 758 mmHg 71%
    11:00 +31°C° 0 mm 3 m/s 757 mmHg 62%
    12:00 +33°C° 0 mm 3 m/s 757 mmHg 59%
    13:00 +34°C° 0 mm 4 m/s 756 mmHg 56%
    14:00 +35°C° 0 mm 4 m/s 755 mmHg 53%
    15:00 +35°C° 0 mm 3 m/s 755 mmHg 54%
    16:00 +35°C° 0 mm 3 m/s 755 mmHg 55%
    17:00 +35°C° 0 mm 3 m/s 754 mmHg 55%
    18:00 +33°C° 0 mm 3 m/s 755 mmHg 62%
    19:00 +31°C° 0 mm 3 m/s 755 mmHg 68%
    20:00 +29°C° 0 mm 2 m/s 756 mmHg 75%
    21:00 +29°C° 0 mm 2 m/s 756 mmHg 75%
    22:00 +28°C° 0 mm 2 m/s 756 mmHg 76%
    23:00 +28°C° 0 mm 2 m/s 757 mmHg 77%

    Après-demain, 23 Juillet, Mardi

    Heure Température Précipitation Vent Pression Humidité
    00:00 +27°C° 0 mm 2 m/s 756 mmHg 79%
    01:00 +27°C° 0 mm 2 m/s 756 mmHg 81%
    02:00 +26°C° 0 mm 1 m/s 756 mmHg 83%
    03:00 +26°C° 0 mm 2 m/s 756 mmHg 84%
    04:00 +26°C° 0 mm 2 m/s 756 mmHg 86%
    05:00 +26°C° 0 mm 2 m/s 756 mmHg 87%
    06:00 +27°C° 0 mm 2 m/s 756 mmHg 82%
    07:00 +28°C° 0 mm 2 m/s 757 mmHg 77%
    08:00 +29°C° 0 mm 3 m/s 757 mmHg 72%
    09:00 +31°C° 0 mm 3 m/s 757 mmHg 64%
    10:00 +34°C° 0 mm 3 m/s 756 mmHg 55%
    11:00 +36°C° 0 mm 3 m/s 756 mmHg 47%
    12:00 +37°C° 0 mm 3 m/s 756 mmHg 45%
    13:00 +38°C° 0 mm 3 m/s 755 mmHg 44%
    14:00 +39°C° 0 mm 3 m/s 754 mmHg 42%
    15:00 +38°C° 0 mm 3 m/s 754 mmHg 44%
    16:00 +37°C° 0 mm 3 m/s 754 mmHg 47%
    17:00 +37°C° 0 mm 3 m/s 754 mmHg 50%
    18:00 +35°C° 0.1 mm 4 m/s 754 mmHg 58%
    19:00 +33°C° 0.1 mm 5 m/s 755 mmHg 66%
    20:00 +30°C° 0.1 mm 5 m/s 756 mmHg 75%
    21:00 +29°C° 0 mm 5 m/s 756 mmHg 77%
    22:00 +29°C° 0 mm 5 m/s 757 mmHg 79%
    23:00 +28°C° 0 mm 5 m/s 757 mmHg 82%

    24 Juillet, Mercredi

    Heure Température Précipitation Vent Pression Humidité
    00:00 +27°C° 0.2 mm 4 m/s 757 mmHg 83%
    01:00 +27°C° 0.2 mm 3 m/s 757 mmHg 84%
    02:00 +27°C° 0.2 mm 2 m/s 756 mmHg 85%
    03:00 +27°C° 0.1 mm 2 m/s 757 mmHg 86%
    04:00 +27°C° 0.1 mm 2 m/s 757 mmHg 86%
    05:00 +27°C° 0.1 mm 2 m/s 757 mmHg 87%
    06:00 +26°C° 8 mm 2 m/s 758 mmHg 90%
    07:00 +25°C° 8 mm 2 m/s 758 mmHg 93%
    08:00 +25°C° 8 mm 2 m/s 758 mmHg 97%
    09:00 +26°C° 2.1 mm 3 m/s 758 mmHg 93%
    10:00 +26°C° 2.1 mm 3 m/s 758 mmHg 90%
    11:00 +27°C° 2.1 mm 4 m/s 758 mmHg 87%
    12:00 +28°C° 0 mm 4 m/s 757 mmHg 82%
    13:00 +29°C° 0 mm 4 m/s 757 mmHg 78%
    14:00 +30°C° 0 mm 3 m/s 756 mmHg 73%
    15:00 +30°C° 0 mm 4 m/s 756 mmHg 74%
    16:00 +30°C° 0 mm 4 m/s 756 mmHg 74%
    17:00 +30°C° 0 mm 4 m/s 756 mmHg 74%
    18:00 +29°C° 0 mm 4 m/s 756 mmHg 78%
    19:00 +28°C° 0 mm 3 m/s 757 mmHg 81%
    20:00 +27°C° 0 mm 3 m/s 757 mmHg 85%
    21:00 +27°C° 0 mm 3 m/s 758 mmHg 85%
    22:00 +27°C° 0 mm 3 m/s 758 mmHg 86%
    23:00 +27°C° 0 mm 3 m/s 758 mmHg 86%

    25 Juillet, Jeudi

    Heure Température Précipitation Vent Pression Humidité
    00:00 +26°C° 0 mm 3 m/s 758 mmHg 86%
    01:00 +26°C° 0 mm 2 m/s 758 mmHg 87%
    02:00 +26°C° 0 mm 1 m/s 758 mmHg 87%
    03:00 +26°C° 0.1 mm 1 m/s 758 mmHg 88%
    04:00 +26°C° 0.1 mm 1 m/s 758 mmHg 89%
    05:00 +26°C° 0.1 mm 1 m/s 758 mmHg 90%
    06:00 +26°C° 0.2 mm 1 m/s 758 mmHg 90%
    07:00 +26°C° 0.2 mm 1 m/s 759 mmHg 90%
    08:00 +26°C° 0.2 mm 1 m/s 759 mmHg 90%
    09:00 +27°C° 0.4 mm 1 m/s 759 mmHg 87%
    10:00 +28°C° 0.4 mm 1 m/s 759 mmHg 83%
    11:00 +28°C° 0.4 mm 1 m/s 759 mmHg 80%
    12:00 +30°C° 0 mm 1 m/s 758 mmHg 72%
    13:00 +32°C° 0 mm 1 m/s 757 mmHg 65%
    14:00 +33°C° 0 mm 1 m/s 757 mmHg 57%
    15:00 +33°C° 0 mm 1 m/s 757 mmHg 57%
    16:00 +33°C° 0 mm 1 m/s 756 mmHg 57%
    17:00 +33°C° 0 mm 1 m/s 756 mmHg 57%
    18:00 +31°C° 0 mm 2 m/s 757 mmHg 65%
    19:00 +29°C° 0 mm 2 m/s 757 mmHg 73%
    20:00 +28°C° 0 mm 3 m/s 758 mmHg 82%
    21:00 +27°C° 0 mm 3 m/s 758 mmHg 84%
    22:00 +27°C° 0 mm 3 m/s 758 mmHg 86%
    23:00 +27°C° 0 mm 3 m/s 759 mmHg 88%

    26 Juillet, Vendredi

    Heure Température Précipitation Vent Pression Humidité
    00:00 +26°C° 0 mm 2 m/s 758 mmHg 89%
    01:00 +26°C° 0 mm 2 m/s 758 mmHg 90%
    02:00 +26°C° 0 mm 2 m/s 758 mmHg 92%
    03:00 +26°C° 0.1 mm 2 m/s 758 mmHg 92%
    04:00 +26°C° 0.1 mm 1 m/s 758 mmHg 93%
    05:00 +26°C° 0.1 mm 1 m/s 758 mmHg 94%
    06:00 +27°C° 0 mm 1 m/s 758 mmHg 89%
    07:00 +28°C° 0 mm 2 m/s 759 mmHg 84%
    08:00 +29°C° 0 mm 2 m/s 759 mmHg 79%
    09:00 +31°C° 0 mm 2 m/s 759 mmHg 70%
    10:00 +33°C° 0 mm 1 m/s 759 mmHg 61%
    11:00 +35°C° 0 mm 1 m/s 759 mmHg 53%
    12:00 +35°C° 0.6 mm 1 m/s 758 mmHg 53%
    13:00 +35°C° 0.6 mm 1 m/s 757 mmHg 53%
    14:00 +35°C° 0.6 mm 1 m/s 756 mmHg 54%
    15:00 +34°C° 0.1 mm 1 m/s 756 mmHg 58%
    16:00 +34°C° 0.1 mm 2 m/s 755 mmHg 63%
    17:00 +32°C° 0.1 mm 2 m/s 755 mmHg 67%
    18:00 +31°C° 0.7 mm 2 m/s 756 mmHg 71%
    19:00 +30°C° 0.7 mm 2 m/s 756 mmHg 75%
    20:00 +29°C° 0.7 mm 2 m/s 757 mmHg 79%
    21:00 +29°C° 0.5 mm 2 m/s 757 mmHg 82%
    22:00 +28°C° 0.5 mm 2 m/s 758 mmHg 85%
    23:00 +28°C° 0.5 mm 3 m/s 758 mmHg 88%
    Voir plus